GFSCGP_prec_precacc_231.txt.gz
Total_Precipitation_Accumulation
0.00 0.00 0.00 0.00 0.00 0.01 0.17 0.41 1.20 1.86 2.16 3.33 3.08 2.32 1.37 1.20 0.91 1.24 0.85 0.19 0.07 0.11 0.06 0.02 0.07 0.10 0.04 0.04 0.05 0.12 0.28 0.42 0.64 0.60 0.44 0.49 0.26 0.35 0.47 0.51 0.42 0.55 0.63 0.63
0.00 0.00 0.00 0.00 0.00 0.02 0.03 0.37 0.92 1.22 1.44 2.31 3.67 2.77 1.70 1.29 0.82 0.84 1.14 0.47 0.22 0.19 0.16 0.03 0.02 0.03 0.03 0.03 0.02 0.15 0.30 0.39 0.33 0.18 0.11 0.37 0.46 0.32 0.61 0.52 0.54 0.56 0.37 0.45
0.00 0.00 0.00 0.00 0.00 0.00 0.06 0.27 0.62 0.89 0.63 1.24 2.92 3.97 3.21 1.99 1.40 1.29 0.69 0.50 0.23 0.15 0.18 0.19 0.10 0.03 0.03 0.01 0.00 0.01 0.12 0.22 0.29 0.25 0.20 0.68 1.10 1.04 1.09 0.91 0.44 0.31 0.27 0.26
0.00 0.00 0.00 0.00 0.00 0.00 0.11 0.20 0.62 1.36 0.79 0.77 0.58 2.51 3.88 2.38 1.97 1.67 0.73 0.43 0.23 0.17 0.29 0.36 0.20 0.06 0.01 0.02 0.03 0.01 0.09 0.20 0.19 0.32 0.21 0.40 0.78 0.83 0.71 0.56 0.32 0.33 0.39 0.27
0.00 0.00 0.00 0.00 0.00 0.01 0.03 0.17 0.56 0.67 0.62 0.26 0.16 0.73 1.74 2.07 1.77 1.58 0.86 0.33 0.20 0.22 0.18 0.13 0.10 0.09 0.12 0.08 0.33 0.24 0.13 0.26 0.24 0.33 0.61 0.47 0.54 0.63 0.71 0.41 0.48 0.65 0.74 0.59
0.00 0.00 0.00 0.00 0.00 0.01 0.02 0.08 0.32 0.59 0.46 0.34 0.09 0.26 0.99 1.42 0.91 1.19 0.85 0.36 0.18 0.21 0.15 0.16 0.27 0.17 0.22 0.48 0.80 0.29 0.16 0.17 0.27 0.31 0.41 0.56 0.95 1.05 0.66 0.98 0.67 0.36 0.26 0.25
0.00 0.00 0.00 0.00 0.00 0.00 0.01 0.05 0.34 0.41 0.35 0.40 0.16 0.25 0.53 0.78 0.54 0.59 1.09 0.55 0.41 0.27 0.26 0.20 0.27 0.14 0.13 0.20 0.47 0.20 0.16 0.16 0.12 0.10 0.18 0.27 0.67 1.09 1.25 1.24 0.47 0.47 0.39 0.29
0.00 0.00 0.00 0.00 0.00 0.00 0.00 0.01 0.13 0.29 0.35 0.45 0.33 0.67 0.33 0.22 0.25 0.41 0.56 0.69 1.16 0.80 0.48 0.41 0.44 0.27 0.11 0.09 0.14 0.10 0.24 0.13 0.07 0.08 0.17 0.31 0.57 0.62 0.56 0.50 0.53 0.29 0.20 0.32
0.00 0.00 0.00 0.00 0.00 0.00 0.00 0.01 0.04 0.09 0.17 0.36 0.37 0.63 0.30 0.14 0.12 0.11 0.41 0.78 1.06 0.99 0.73 0.86 0.69 0.52 0.19 0.07 0.09 0.23 0.56 0.31 0.18 0.09 0.23 0.35 0.45 0.49 0.57 0.64 0.68 0.35 0.26 0.38
0.00 0.00 0.00 0.00 0.00 0.01 0.00 0.01 0.03 0.04 0.20 0.22 0.53 1.02 0.96 0.29 0.50 0.24 0.24 0.37 0.53 1.02 1.11 0.93 0.86 0.73 0.60 0.33 0.24 0.29 0.42 0.44 0.22 0.23 0.44 0.51 0.38 0.32 0.60 0.79 0.66 0.45 0.67 1.03
0.01 0.00 0.01 0.00 0.02 0.03 0.01 0.00 0.01 0.01 0.08 0.28 0.53 0.89 0.91 0.48 0.70 0.58 0.45 0.30 0.31 0.30 0.76 1.42 2.05 2.47 1.89 1.56 1.27 0.79 0.91 0.88 0.74 0.72 0.81 1.00 0.77 0.49 0.55 0.81 0.76 0.78 0.88 0.90
0.02 0.01 0.01 0.01 0.03 0.09 0.12 0.07 0.06 0.02 0.16 0.21 0.29 0.70 0.77 0.47 0.58 0.74 1.55 0.83 0.65 0.35 0.35 0.95 1.53 2.92 4.45 3.02 3.49 4.19 2.70 1.83 1.49 1.02 0.83 0.47 0.50 0.57 0.39 0.41 0.56 0.91 0.96 1.02
0.09 0.06 0.04 0.05 0.07 0.03 0.00 0.02 0.17 0.14 0.14 0.07 0.12 0.23 0.33 0.40 0.66 0.85 1.51 1.45 0.76 0.82 0.60 0.55 0.84 1.25 2.53 2.41 2.18 4.31 4.81 3.68 2.55 1.47 1.03 0.98 1.05 0.58 0.35 0.26 0.35 0.55 0.69 0.86
0.21 0.06 0.02 0.08 0.15 0.08 0.02 0.02 0.01 0.06 0.09 0.03 0.04 0.13 0.37 0.39 0.50 0.28 0.40 1.18 1.12 0.93 1.01 0.70 1.06 1.81 2.44 2.93 3.05 3.83 3.61 3.71 4.27 2.99 2.36 1.90 1.78 1.27 1.04 0.95 0.86 0.74 0.81 0.62
0.12 0.02 0.00 0.00 0.01 0.00 0.03 0.03 0.03 0.01 0.01 0.06 0.36 0.14 0.66 0.36 0.18 0.11 0.23 0.38 0.56 0.79 0.91 0.96 1.08 1.25 2.45 3.51 3.01 3.92 4.19 3.62 2.95 3.47 4.42 4.25 3.53 2.95 2.76 3.00 2.62 1.84 1.49 0.97
0.11 0.04 0.00 0.00 0.00 0.00 0.01 0.01 0.01 0.05 0.13 0.07 0.26 0.50 0.31 0.43 0.37 0.35 0.42 0.72 0.94 0.98 0.89 1.00 1.43 1.49 1.59 1.92 2.06 2.91 4.36 4.99 3.59 2.68 2.75 3.65 4.57 5.05 4.18 4.01 3.73 4.08 3.23 2.34
0.17 0.16 0.15 0.05 0.01 0.01 0.06 0.01 0.01 0.01 0.04 0.05 0.13 0.64 0.61 0.62 0.65 0.74 0.53 0.90 1.56 1.48 1.29 1.06 1.09 1.48 1.37 1.31 1.19 1.23 1.84 2.99 3.77 3.99 3.32 3.24 3.68 5.13 5.42 4.29 4.23 4.38 4.28 4.32
0.14 0.22 0.23 0.15 0.13 0.18 0.07 0.06 0.04 0.07 0.08 0.20 0.35 0.30 0.47 0.50 0.20 0.19 0.20 0.25 0.69 1.00 1.45 1.42 1.22 1.27 1.19 1.49 1.69 1.27 1.21 1.34 1.93 2.79 3.54 3.92 3.59 4.40 5.19 4.32 3.67 3.71 4.21 4.63
0.07 0.22 0.25 0.17 0.32 0.25 0.11 0.08 0.04 0.06 0.16 0.21 0.23 0.35 0.82 0.67 0.43 0.26 0.30 0.24 0.30 0.67 0.61 0.97 1.45 1.38 1.69 1.60 1.84 2.05 1.93 1.47 1.74 1.93 2.50 3.61 4.84 4.91 5.04 5.34 4.67 4.33 4.27 3.97
0.14 0.27 0.37 0.25 0.62 0.79 0.60 0.21 0.03 0.03 0.27 0.39 0.29 0.35 0.97 0.63 0.71 0.49 0.29 0.23 0.24 0.53 0.38 0.32 0.43 0.78 1.15 1.89 2.05 2.26 2.60 2.09 1.71 1.84 1.99 2.08 2.46 3.15 3.62 4.33 4.73 4.75 4.99 4.67
0.53 0.52 0.44 0.38 0.70 0.71 0.43 0.20 0.04 0.22 0.31 0.22 0.23 0.50 0.69 0.53 0.54 0.64 0.62 0.67 0.16 0.21 0.41 0.22 0.18 0.29 0.55 0.82 1.22 1.70 1.56 1.70 2.27 2.34 2.34 2.25 2.29 2.60 2.92 3.03 3.15 3.37 3.24 3.21
0.79 0.95 0.69 0.56 0.76 0.93 0.50 0.44 0.34 0.27 0.10 0.16 0.25 0.49 0.78 0.66 0.70 0.56 0.43 0.36 0.36 0.18 0.53 0.44 0.26 0.34 0.41 0.60 0.85 1.09 1.29 1.30 1.93 2.51 3.02 3.38 3.58 3.51 3.13 3.12 3.88 3.66 3.29 3.28
0.63 0.59 0.63 0.73 0.91 0.89 0.55 0.44 0.16 0.07 0.12 0.18 0.30 0.42 0.63 0.63 0.52 0.48 0.39 0.21 0.16 0.15 0.62 0.68 0.29 0.35 0.57 0.65 0.63 0.63 0.81 1.10 1.31 1.58 2.02 2.19 2.85 3.23 3.10 3.30 3.44 3.27 3.28 3.22
0.84 0.67 0.77 0.72 0.62 0.69 0.65 0.47 0.39 0.17 0.17 0.17 0.23 0.37 0.58 0.55 0.47 0.38 0.35 0.34 0.32 0.27 0.47 1.53 1.31 0.61 0.60 0.56 0.53 0.57 0.64 0.72 0.74 0.84 0.89 0.81 1.06 1.45 1.38 1.43 1.50 1.72 1.69 1.95
1.70 1.39 1.06 0.92 0.98 1.08 1.05 0.73 0.60 0.58 0.48 0.35 0.34 0.31 0.31 0.34 0.41 0.48 0.41 0.37 0.40 0.56 0.59 1.01 1.49 1.11 0.58 0.49 0.53 0.63 0.67 0.94 0.83 0.99 0.98 1.05 1.45 1.94 2.24 2.46 2.73 2.42 2.45 2.51
2.34 2.11 1.91 1.65 1.50 1.67 1.25 1.00 0.67 0.89 0.83 0.78 0.63 0.67 0.61 0.52 0.45 0.43 0.46 0.44 0.43 0.52 0.93 1.19 1.14 1.14 1.02 0.93 0.96 0.87 0.87 0.93 0.97 1.10 1.16 1.29 1.55 1.96 2.28 2.16 2.39 2.94 3.29 3.28

GFSCGP_prec_precacc_234.txt.gz
Total_Precipitation_Accumulation
0.00 0.00 0.00 0.00 0.00 0.01 0.17 0.41 1.20 1.86 2.16 3.33 3.08 2.32 1.37 1.20 0.91 1.24 0.85 0.19 0.07 0.11 0.06 0.02 0.07 0.10 0.04 0.04 0.05 0.12 0.28 0.42 0.64 0.62 0.47 0.51 0.30 0.42 0.55 0.53 0.43 0.56 0.63 0.63
0.00 0.00 0.00 0.00 0.00 0.02 0.03 0.37 0.92 1.22 1.44 2.31 3.67 2.77 1.70 1.29 0.82 0.84 1.15 0.48 0.22 0.19 0.16 0.03 0.02 0.03 0.03 0.03 0.02 0.15 0.30 0.39 0.33 0.19 0.12 0.38 0.47 0.73 0.96 0.58 0.57 0.57 0.38 0.47
0.00 0.00 0.00 0.00 0.00 0.00 0.06 0.27 0.62 0.89 0.63 1.24 2.92 3.97 3.21 1.99 1.40 1.29 0.69 0.52 0.39 0.15 0.18 0.19 0.10 0.03 0.03 0.01 0.00 0.01 0.12 0.22 0.29 0.26 0.20 0.72 1.27 1.34 1.33 1.29 0.50 0.39 0.46 0.34
0.00 0.00 0.00 0.00 0.00 0.00 0.11 0.20 0.62 1.36 0.79 0.77 0.58 2.51 3.88 2.38 1.97 1.67 0.73 0.44 0.27 0.17 0.29 0.36 0.20 0.06 0.01 0.02 0.03 0.01 0.09 0.20 0.19 0.32 0.22 0.49 0.97 0.94 0.78 0.58 0.33 0.38 0.58 0.43
0.00 0.00 0.00 0.00 0.00 0.01 0.03 0.17 0.56 0.67 0.62 0.26 0.16 0.73 1.74 2.07 1.77 1.58 0.86 0.33 0.30 0.26 0.18 0.13 0.10 0.09 0.12 0.08 0.33 0.24 0.13 0.26 0.24 0.33 0.62 0.49 0.60 0.64 0.72 0.45 0.53 0.69 0.78 0.62
0.00 0.00 0.00 0.00 0.00 0.01 0.02 0.08 0.32 0.59 0.46 0.34 0.09 0.26 0.99 1.42 0.92 1.19 0.85 0.36 0.18 0.21 0.15 0.16 0.27 0.17 0.22 0.48 0.80 0.29 0.16 0.17 0.27 0.31 0.43 0.68 1.10 1.10 0.88 1.28 0.78 0.39 0.28 0.26
0.00 0.00 0.00 0.00 0.00 0.00 0.01 0.05 0.34 0.41 0.35 0.40 0.16 0.25 0.53 0.89 0.62 0.59 1.09 0.55 0.41 0.27 0.26 0.20 0.27 0.14 0.13 0.20 0.47 0.20 0.16 0.16 0.12 0.10 0.18 0.27 0.72 1.12 1.36 1.32 0.48 0.47 0.43 0.52
0.00 0.00 0.00 0.00 0.00 0.00 0.00 0.01 0.13 0.29 0.35 0.46 0.33 0.67 0.34 0.23 0.27 0.42 0.57 0.69 1.16 0.80 0.48 0.41 0.44 0.27 0.11 0.09 0.14 0.10 0.24 0.13 0.07 0.08 0.17 0.31 0.57 0.63 0.58 0.51 0.54 0.31 0.33 0.45
0.00 0.00 0.00 0.00 0.00 0.00 0.00 0.01 0.04 0.09 0.17 0.36 0.37 0.71 0.43 0.16 0.14 0.12 0.41 0.78 1.06 0.99 0.74 0.88 0.69 0.52 0.19 0.07 0.09 0.23 0.56 0.31 0.18 0.09 0.23 0.36 0.45 0.49 0.61 0.69 0.71 0.36 0.28 0.38
0.00 0.00 0.00 0.00 0.00 0.01 0.00 0.01 0.03 0.04 0.20 0.22 0.54 1.06 1.15 0.46 0.76 0.32 0.24 0.37 0.53 1.02 1.11 0.93 0.86 0.73 0.60 0.33 0.24 0.29 0.42 0.44 0.22 0.23 0.45 0.52 0.38 0.32 0.60 0.79 0.66 0.45 0.67 1.03
0.01 0.00 0.01 0.00 0.02 0.03 0.01 0.00 0.01 0.01 0.08 0.28 0.55 0.93 1.07 0.75 1.27 1.00 0.48 0.30 0.31 0.30 0.76 1.42 2.05 2.47 1.89 1.56 1.27 0.79 0.91 0.88 0.74 0.73 0.83 1.03 0.78 0.49 0.56 0.81 0.76 0.78 0.88 0.90
0.02 0.01 0.01 0.01 0.03 0.09 0.12 0.07 0.06 0.02 0.16 0.21 0.30 0.71 0.79 0.86 0.82 0.98 1.58 0.83 0.65 0.35 0.35 0.95 1.53 2.92 4.45 3.02 3.49 4.19 2.70 1.84 1.50 1.03 0.84 0.48 0.50 0.57 0.39 0.41 0.56 0.91 0.97 1.02
0.09 0.06 0.06 0.08 0.07 0.03 0.00 0.02 0.17 0.14 0.14 0.07 0.12 0.23 0.36 0.51 0.74 0.98 1.52 1.45 0.76 0.82 0.60 0.55 0.85 1.26 2.54 2.41 2.18 4.31 4.82 3.69 2.56 1.47 1.03 0.98 1.05 0.58 0.35 0.26 0.35 0.55 0.69 0.86
0.21 0.06 0.02 0.19 0.22 0.08 0.02 0.02 0.01 0.06 0.09 0.03 0.04 0.13 0.42 0.68 1.29 0.52 0.41 1.18 1.12 0.93 1.01 0.71 1.07 1.82 2.44 2.93 3.05 3.84 3.61 3.71 4.27 2.99 2.36 1.90 1.78 1.27 1.04 0.95 0.86 0.74 0.81 0.62
0.12 0.02 0.00 0.03 0.01 0.01 0.04 0.04 0.03 0.01 0.01 0.06 0.36 0.14 0.67 0.41 0.28 0.42 0.24 0.38 0.56 0.79 0.91 0.96 1.08 1.25 2.45 3.51 3.01 3.92 4.19 3.62 2.95 3.47 4.42 4.25 3.53 2.95 2.76 3.00 2.62 1.84 1.49 0.97
0.11 0.04 0.00 0.00 0.01 0.00 0.01 0.01 0.01 0.05 0.13 0.07 0.26 0.50 0.31 0.43 0.37 0.38 0.44 0.73 0.94 0.98 0.89 1.00 1.43 1.49 1.59 1.92 2.06 2.91 4.36 4.99 3.59 2.68 2.75 3.65 4.57 5.05 4.18 4.01 3.73 4.08 3.23 2.34
0.17 0.16 0.15 0.05 0.01 0.01 0.06 0.01 0.01 0.01 0.04 0.05 0.13 0.64 0.61 0.62 0.65 0.74 0.54 0.92 1.56 1.48 1.29 1.06 1.09 1.48 1.37 1.31 1.19 1.23 1.84 2.99 3.77 3.99 3.32 3.24 3.68 5.13 5.42 4.29 4.23 4.38 4.28 4.32
0.14 0.22 0.23 0.15 0.13 0.18 0.07 0.06 0.04 0.07 0.08 0.20 0.35 0.30 0.47 0.50 0.20 0.19 0.20 0.31 0.71 1.01 1.47 1.42 1.22 1.27 1.19 1.49 1.69 1.27 1.21 1.34 1.93 2.79 3.54 3.92 3.59 4.40 5.19 4.32 3.67 3.71 4.21 4.64
0.07 0.22 0.25 0.17 0.32 0.25 0.11 0.08 0.04 0.06 0.16 0.21 0.23 0.35 0.82 0.67 0.43 0.27 0.31 0.24 0.31 0.70 0.62 0.97 1.45 1.38 1.69 1.60 1.84 2.05 1.93 1.47 1.74 1.93 2.50 3.61 4.84 4.91 5.04 5.34 4.67 4.33 4.27 3.98
0.14 0.27 0.37 0.25 0.62 0.79 0.60 0.21 0.03 0.03 0.27 0.39 0.29 0.35 0.97 0.63 0.71 0.50 0.34 0.24 0.24 0.53 0.38 0.32 0.43 0.78 1.15 1.89 2.05 2.26 2.60 2.09 1.71 1.84 1.99 2.08 2.46 3.15 3.62 4.33 4.73 4.75 5.00 4.67
0.53 0.52 0.44 0.38 0.70 0.71 0.43 0.20 0.04 0.22 0.31 0.22 0.23 0.50 0.69 0.53 0.54 0.65 0.62 0.67 0.16 0.21 0.41 0.22 0.18 0.29 0.55 0.82 1.22 1.70 1.56 1.70 2.27 2.34 2.34 2.25 2.29 2.60 2.92 3.03 3.16 3.37 3.25 3.21
0.79 0.95 0.69 0.56 0.76 0.93 0.50 0.44 0.34 0.27 0.10 0.16 0.25 0.49 0.78 0.66 0.70 0.56 0.43 0.36 0.36 0.18 0.53 0.44 0.26 0.34 0.41 0.60 0.85 1.09 1.29 1.30 1.93 2.51 3.02 3.38 3.58 3.51 3.14 3.12 3.89 3.67 3.30 3.29
0.63 0.59 0.63 0.73 0.91 0.89 0.55 0.44 0.16 0.07 0.12 0.18 0.30 0.42 0.63 0.63 0.52 0.48 0.39 0.21 0.16 0.15 0.62 0.68 0.29 0.35 0.57 0.65 0.63 0.63 0.81 1.10 1.31 1.58 2.02 2.19 2.86 3.23 3.11 3.32 3.46 3.28 3.28 3.23
0.84 0.67 0.77 0.72 0.62 0.69 0.65 0.47 0.39 0.17 0.17 0.17 0.23 0.37 0.58 0.55 0.47 0.38 0.35 0.34 0.32 0.27 0.47 1.53 1.31 0.61 0.60 0.56 0.53 0.57 0.64 0.73 0.75 0.85 0.90 0.81 1.07 1.45 1.39 1.43 1.51 1.74 1.72 1.98
1.70 1.39 1.06 0.92 0.98 1.08 1.05 0.73 0.60 0.58 0.48 0.35 0.34 0.31 0.31 0.34 0.41 0.48 0.41 0.37 0.40 0.56 0.59 1.01 1.49 1.11 0.58 0.49 0.54 0.63 0.67 0.94 0.85 1.00 0.98 1.06 1.45 1.94 2.24 2.47 2.74 2.45 2.47 2.54
2.34 2.11 1.91 1.65 1.50 1.67 1.25 1.00 0.67 0.89 0.83 0.78 0.63 0.67 0.61 0.52 0.45 0.43 0.46 0.44 0.43 0.52 0.93 1.19 1.14 1.14 1.03 0.93 0.96 0.87 0.87 0.93 0.97 1.11 1.17 1.29 1.56 1.96 2.29 2.16 2.40 2.94 3.29 3.28

GFSCGP_prec_precacc_237.txt.gz
Total_Precipitation_Accumulation
0.00 0.00 0.00 0.00 0.00 0.01 0.17 0.41 1.20 1.86 2.16 3.33 3.08 2.32 1.37 1.20 0.93 1.25 0.86 0.20 0.07 0.11 0.06 0.02 0.07 0.10 0.04 0.04 0.05 0.12 0.28 0.42 0.64 0.63 0.51 0.56 0.33 0.44 0.57 0.54 0.43 0.56 0.63 0.64
0.00 0.00 0.00 0.00 0.00 0.02 0.03 0.37 0.92 1.22 1.44 2.31 3.67 2.77 1.70 1.29 0.82 0.84 1.18 0.67 0.24 0.20 0.16 0.03 0.02 0.03 0.03 0.03 0.02 0.15 0.30 0.39 0.34 0.19 0.12 0.38 0.48 0.89 1.24 0.69 0.62 0.59 0.40 0.49
0.00 0.00 0.00 0.00 0.00 0.00 0.06 0.27 0.62 0.89 0.63 1.24 2.92 3.97 3.21 1.99 1.40 1.29 0.71 0.55 0.42 0.16 0.18 0.19 0.10 0.03 0.03 0.01 0.00 0.01 0.12 0.22 0.29 0.26 0.23 0.81 1.48 1.89 1.41 1.34 0.55 0.45 0.50 0.38
0.00 0.00 0.00 0.00 0.00 0.00 0.11 0.20 0.62 1.36 0.79 0.77 0.58 2.51 3.88 2.38 1.97 1.67 0.73 0.48 0.30 0.21 0.31 0.38 0.20 0.06 0.01 0.02 0.03 0.01 0.09 0.20 0.19 0.33 0.24 0.53 1.02 0.99 0.82 0.59 0.34 0.41 0.64 0.46
0.00 0.00 0.00 0.00 0.00 0.01 0.03 0.17 0.56 0.67 0.62 0.26 0.16 0.73 1.74 2.07 1.77 1.58 0.86 0.37 0.41 0.63 0.21 0.14 0.10 0.09 0.12 0.08 0.33 0.24 0.13 0.26 0.24 0.33 0.64 0.53 0.64 0.69 0.79 0.57 0.65 0.72 0.82 0.73
0.00 0.00 0.00 0.00 0.00 0.01 0.02 0.08 0.32 0.59 0.46 0.34 0.09 0.26 0.99 1.42 0.92 1.19 0.85 0.36 0.22 0.37 0.22 0.23 0.29 0.17 0.22 0.48 0.80 0.29 0.16 0.17 0.27 0.31 0.43 0.73 1.15 1.14 0.93 1.55 0.92 0.48 0.51 0.99
0.00 0.00 0.00 0.00 0.00 0.00 0.01 0.05 0.34 0.41 0.35 0.40 0.16 0.25 0.53 0.89 0.62 0.59 1.09 0.56 0.45 0.40 0.65 0.29 0.31 0.15 0.13 0.20 0.47 0.20 0.16 0.16 0.12 0.10 0.18 0.27 0.74 1.15 1.38 1.33 0.51 0.53 0.63 1.00
0.00 0.00 0.00 0.00 0.00 0.00 0.00 0.01 0.13 0.29 0.35 0.46 0.33 0.67 0.34 0.24 0.27 0.42 0.57 0.71 1.19 0.85 0.55 0.51 0.51 0.27 0.11 0.09 0.14 0.10 0.24 0.13 0.07 0.08 0.17 0.31 0.57 0.63 0.59 0.55 0.61 0.39 0.46 0.63
0.00 0.00 0.00 0.00 0.00 0.00 0.00 0.01 0.04 0.09 0.17 0.36 0.37 0.71 0.45 0.17 0.16 0.17 0.45 0.79 1.08 1.03 0.76 1.55 0.93 0.55 0.20 0.07 0.09 0.23 0.56 0.31 0.18 0.09 0.23 0.36 0.45 0.50 0.61 0.69 0.71 0.45 0.44 0.46
0.00 0.00 0.00 0.00 0.00 0.01 0.00 0.01 0.03 0.04 0.20 0.22 0.54 1.06 1.17 0.47 0.80 0.41 0.36 0.43 0.54 1.04 1.12 1.07 0.98 0.82 0.65 0.33 0.24 0.29 0.42 0.44 0.22 0.24 0.47 0.57 0.41 0.34 0.61 0.82 0.71 0.49 0.68 1.04
0.01 0.00 0.01 0.00 0.02 0.03 0.01 0.00 0.01 0.01 0.08 0.28 0.55 0.93 1.07 0.76 1.29 1.31 0.70 0.37 0.37 0.44 0.84 1.47 2.15 2.58 1.94 1.57 1.28 0.79 0.92 0.92 0.77 0.74 0.85 1.05 0.80 0.54 0.58 0.84 0.79 0.78 0.88 0.90
0.02 0.01 0.01 0.01 0.03 0.09 0.12 0.07 0.06 0.02 0.16 0.21 0.30 0.71 0.80 0.90 0.83 1.10 1.75 0.99 0.79 0.55 0.51 0.98 1.56 2.94 4.45 3.02 3.49 4.23 2.83 1.95 1.55 1.03 0.84 0.49 0.51 0.57 0.39 0.41 0.56 0.91 0.97 1.02
0.09 0.06 0.06 0.09 0.07 0.03 0.00 0.02 0.17 0.14 0.14 0.07 0.12 0.23 0.37 0.55 0.76 1.09 2.00 1.84 1.21 1.20 0.66 0.56 0.86 1.30 2.58 2.52 2.35 4.56 4.94 3.74 2.57 1.47 1.03 0.98 1.05 0.58 0.35 0.26 0.35 0.55 0.69 0.86
0.21 0.06 0.02 0.19 0.22 0.08 0.02 0.02 0.01 0.06 0.09 0.03 0.04 0.13 0.42 0.68 1.44 0.79 1.39 2.39 1.56 1.10 1.15 0.82 1.17 1.93 2.56 3.05 3.19 3.96 3.71 3.77 4.28 2.99 2.36 1.90 1.78 1.27 1.04 0.95 0.86 0.74 0.81 0.62
0.12 0.02 0.00 0.03 0.01 0.01 0.04 0.04 0.03 0.01 0.01 0.06 0.36 0.14 0.67 0.41 0.32 0.76 0.62 0.58 0.62 0.81 0.92 0.96 1.09 1.26 2.46 3.53 3.03 3.93 4.19 3.62 2.95 3.47 4.42 4.25 3.53 2.95 2.76 3.00 2.62 1.84 1.49 0.97
0.11 0.04 0.00 0.00 0.01 0.00 0.01 0.01 0.01 0.05 0.13 0.07 0.26 0.50 0.31 0.44 0.42 0.47 0.91 1.34 1.40 1.09 0.90 1.01 1.44 1.49 1.59 1.92 2.06 2.91 4.36 4.99 3.59 2.68 2.75 3.65 4.57 5.05 4.18 4.01 3.73 4.08 3.23 2.34
0.17 0.16 0.15 0.06 0.05 0.01 0.06 0.01 0.01 0.01 0.04 0.05 0.13 0.64 0.61 0.62 0.68 0.83 0.63 0.99 1.77 1.63 1.31 1.06 1.09 1.48 1.37 1.31 1.19 1.23 1.84 2.99 3.77 3.99 3.32 3.24 3.68 5.13 5.42 4.29 4.23 4.38 4.28 4.33
0.14 0.22 0.23 0.15 0.13 0.19 0.07 0.06 0.04 0.07 0.08 0.20 0.35 0.30 0.47 0.50 0.21 0.32 0.39 0.47 0.94 1.29 1.51 1.47 1.22 1.27 1.19 1.49 1.69 1.27 1.21 1.34 1.93 2.79 3.54 3.92 3.59 4.40 5.19 4.33 3.68 3.72 4.22 4.64
0.07 0.22 0.25 0.17 0.32 0.25 0.11 0.08 0.04 0.06 0.16 0.21 0.23 0.35 0.82 0.67 0.43 0.34 0.39 0.31 0.35 0.75 0.68 1.00 1.46 1.38 1.69 1.60 1.84 2.05 1.93 1.47 1.74 1.93 2.50 3.61 4.84 4.91 5.04 5.34 4.68 4.34 4.28 3.98
0.14 0.27 0.37 0.25 0.62 0.79 0.60 0.21 0.03 0.03 0.27 0.39 0.29 0.35 0.97 0.63 0.71 0.51 0.37 0.25 0.24 0.53 0.38 0.33 0.43 0.78 1.15 1.89 2.05 2.26 2.60 2.09 1.71 1.84 1.99 2.08 2.46 3.15 3.62 4.33 4.73 4.75 5.00 4.67
0.53 0.52 0.44 0.38 0.70 0.71 0.43 0.20 0.04 0.22 0.31 0.22 0.23 0.50 0.69 0.53 0.54 0.65 0.62 0.67 0.16 0.21 0.41 0.22 0.18 0.29 0.55 0.82 1.22 1.70 1.56 1.70 2.27 2.34 2.34 2.25 2.29 2.60 2.92 3.03 3.16 3.37 3.25 3.21
0.79 0.95 0.69 0.56 0.76 0.93 0.50 0.44 0.34 0.27 0.10 0.16 0.25 0.49 0.78 0.66 0.70 0.56 0.43 0.36 0.36 0.18 0.53 0.44 0.26 0.34 0.41 0.60 0.85 1.09 1.29 1.30 1.93 2.51 3.02 3.38 3.58 3.51 3.14 3.12 3.89 3.67 3.30 3.29
0.63 0.59 0.63 0.73 0.91 0.89 0.55 0.44 0.16 0.07 0.12 0.18 0.30 0.42 0.63 0.63 0.52 0.48 0.39 0.21 0.16 0.15 0.62 0.68 0.29 0.35 0.57 0.65 0.63 0.63 0.81 1.10 1.31 1.58 2.02 2.19 2.86 3.23 3.11 3.32 3.46 3.28 3.28 3.23
0.84 0.67 0.77 0.72 0.62 0.69 0.65 0.47 0.39 0.17 0.17 0.17 0.23 0.37 0.58 0.55 0.47 0.38 0.35 0.34 0.32 0.27 0.47 1.53 1.31 0.61 0.60 0.56 0.53 0.57 0.64 0.73 0.75 0.85 0.90 0.81 1.07 1.45 1.39 1.43 1.51 1.74 1.72 1.98
1.70 1.39 1.06 0.92 0.98 1.08 1.05 0.73 0.60 0.58 0.48 0.35 0.34 0.31 0.31 0.34 0.41 0.48 0.41 0.37 0.40 0.56 0.59 1.01 1.49 1.11 0.58 0.49 0.54 0.63 0.67 0.95 0.85 1.00 0.98 1.06 1.45 1.94 2.24 2.47 2.74 2.45 2.47 2.54
2.34 2.11 1.91 1.65 1.50 1.67 1.25 1.00 0.67 0.89 0.83 0.78 0.63 0.67 0.61 0.52 0.45 0.43 0.46 0.44 0.43 0.52 0.93 1.19 1.14 1.14 1.03 0.93 0.96 0.87 0.87 0.93 0.97 1.11 1.17 1.29 1.56 1.96 2.29 2.16 2.40 2.94 3.29 3.28

GFSCGP_prec_precacc_240.txt.gz
Total_Precipitation_Accumulation
0.00 0.00 0.00 0.00 0.00 0.01 0.17 0.41 1.20 1.86 2.16 3.33 3.08 2.32 1.37 1.20 0.93 1.25 0.86 0.20 0.07 0.11 0.06 0.02 0.07 0.10 0.04 0.04 0.05 0.12 0.28 0.42 0.64 0.63 0.51 0.56 0.33 0.45 0.57 0.54 0.43 0.56 0.63 0.64
0.00 0.00 0.00 0.00 0.00 0.02 0.03 0.37 0.92 1.22 1.44 2.31 3.67 2.77 1.70 1.29 0.83 0.84 1.19 0.67 0.24 0.20 0.16 0.03 0.02 0.03 0.03 0.03 0.02 0.15 0.30 0.39 0.34 0.19 0.12 0.38 0.48 0.90 1.24 0.69 0.62 0.60 0.41 0.49
0.00 0.00 0.00 0.00 0.00 0.00 0.06 0.27 0.62 0.89 0.63 1.24 2.92 3.97 3.21 1.99 1.40 1.29 0.72 0.55 0.42 0.16 0.18 0.19 0.10 0.03 0.03 0.01 0.00 0.02 0.12 0.22 0.29 0.27 0.23 0.81 1.49 1.90 1.41 1.34 0.56 0.46 0.52 0.43
0.00 0.00 0.00 0.00 0.00 0.00 0.11 0.20 0.62 1.36 0.79 0.77 0.58 2.51 3.88 2.38 1.97 1.67 0.73 0.49 0.31 0.21 0.32 0.38 0.20 0.06 0.01 0.02 0.03 0.01 0.09 0.20 0.19 0.33 0.24 0.53 1.02 0.99 0.82 0.60 0.36 0.43 0.79 0.73
0.00 0.00 0.00 0.00 0.00 0.01 0.03 0.17 0.56 0.67 0.62 0.26 0.16 0.73 1.74 2.07 1.77 1.58 0.86 0.39 0.42 0.63 0.21 0.14 0.10 0.09 0.12 0.09 0.33 0.24 0.13 0.26 0.24 0.33 0.64 0.53 0.64 0.69 0.80 0.58 0.68 0.82 0.94 1.11
0.00 0.00 0.00 0.00 0.00 0.01 0.02 0.08 0.32 0.59 0.46 0.34 0.09 0.26 0.99 1.42 0.92 1.19 0.87 0.39 0.25 0.38 0.22 0.23 0.30 0.19 0.22 0.48 0.80 0.29 0.16 0.17 0.27 0.31 0.43 0.73 1.15 1.14 0.94 1.55 0.93 0.50 0.61 1.31
0.00 0.00 0.00 0.00 0.00 0.00 0.01 0.05 0.34 0.41 0.35 0.40 0.16 0.25 0.53 0.89 0.62 0.59 1.09 0.58 0.48 0.47 0.67 0.30 0.33 0.19 0.13 0.20 0.47 0.20 0.16 0.16 0.12 0.10 0.18 0.27 0.74 1.18 1.42 1.33 0.51 0.53 0.64 1.04
0.00 0.00 0.00 0.00 0.00 0.00 0.00 0.01 0.13 0.29 0.35 0.46 0.33 0.67 0.34 0.24 0.27 0.42 0.57 0.72 1.21 0.90 0.66 0.58 0.60 0.37 0.12 0.09 0.14 0.10 0.24 0.13 0.07 0.08 0.18 0.31 0.57 0.63 0.61 0.55 0.64 0.44 0.48 0.63
0.00 0.00 0.00 0.00 0.00 0.00 0.00 0.01 0.04 0.09 0.17 0.36 0.37 0.71 0.45 0.17 0.16 0.17 0.45 0.81 1.12 1.07 0.81 2.01 1.22 0.62 0.23 0.07 0.09 0.23 0.56 0.31 0.18 0.09 0.26 0.38 0.52 0.73 0.73 0.74 0.76 0.55 0.48 0.46
0.00 0.00 0.00 0.00 0.00 0.01 0.00 0.01 0.03 0.04 0.20 0.22 0.54 1.06 1.17 0.47 0.80 0.41 0.36 0.43 0.59 1.13 1.17 1.19 1.08 0.85 0.70 0.36 0.24 0.29 0.42 0.44 0.26 0.34 0.58 0.77 0.75 0.63 0.80 1.00 0.78 0.52 0.69 1.04
0.01 0.00 0.01 0.00 0.02 0.03 0.01 0.00 0.01 0.01 0.08 0.28 0.55 0.93 1.07 0.76 1.29 1.31 0.70 0.37 0.40 0.52 0.97 1.65 2.28 2.65 1.99 1.59 1.28 0.79 0.93 0.99 1.01 0.94 1.03 1.25 0.97 0.68 0.70 0.94 0.85 0.79 0.88 0.90
0.02 0.01 0.01 0.01 0.03 0.09 0.12 0.07 0.06 0.02 0.16 0.21 0.30 0.71 0.80 0.90 0.83 1.10 1.75 0.99 0.79 0.62 0.87 1.15 1.70 3.03 4.48 3.05 3.54 4.43 3.08 2.17 1.77 1.30 1.06 0.66 0.55 0.59 0.44 0.44 0.57 0.92 0.97 1.02
0.09 0.06 0.06 0.09 0.08 0.03 0.00 0.02 0.17 0.14 0.14 0.07 0.12 0.23 0.37 0.55 0.76 1.09 2.00 1.84 1.32 1.76 2.52 1.42 1.27 1.63 2.97 2.97 2.82 5.35 6.59 4.76 3.32 1.66 1.10 0.99 1.06 0.58 0.35 0.28 0.35 0.55 0.69 0.86
0.21 0.06 0.02 0.19 0.22 0.08 0.02 0.02 0.01 0.06 0.09 0.03 0.04 0.13 0.42 0.68 1.44 0.79 1.39 2.43 1.98 1.97 1.97 2.52 2.46 2.61 2.95 3.60 3.73 4.22 4.07 4.13 4.55 3.13 2.46 1.96 1.80 1.27 1.04 0.95 0.86 0.74 0.81 0.62
0.12 0.02 0.00 0.03 0.01 0.01 0.04 0.04 0.03 0.01 0.01 0.06 0.36 0.14 0.67 0.41 0.32 0.76 0.62 0.58 0.65 0.87 1.01 1.12 1.40 1.39 2.51 3.57 3.07 3.99 4.26 3.68 2.97 3.48 4.43 4.26 3.54 2.95 2.76 3.00 2.62 1.84 1.49 0.97
0.11 0.04 0.00 0.00 0.01 0.00 0.01 0.01 0.01 0.05 0.13 0.07 0.26 0.50 0.31 0.44 0.42 0.47 0.91 1.35 1.40 1.10 0.90 1.02 1.46 1.49 1.59 1.92 2.06 2.91 4.36 4.99 3.59 2.68 2.75 3.65 4.57 5.05 4.18 4.01 3.73 4.08 3.23 2.34
0.17 0.16 0.15 0.06 0.06 0.02 0.06 0.01 0.01 0.01 0.04 0.05 0.13 0.64 0.61 0.62 0.68 0.84 0.65 1.02 1.79 1.67 1.35 1.10 1.11 1.49 1.37 1.31 1.19 1.23 1.84 2.99 3.77 3.99 3.32 3.24 3.68 5.13 5.42 4.29 4.23 4.38 4.28 4.33
0.14 0.22 0.23 0.15 0.14 0.19 0.07 0.06 0.04 0.07 0.08 0.20 0.35 0.30 0.47 0.50 0.22 0.34 0.47 0.62 1.03 1.63 1.73 1.53 1.23 1.27 1.19 1.49 1.69 1.27 1.21 1.34 1.93 2.79 3.54 3.92 3.59 4.40 5.19 4.33 3.68 3.72 4.22 4.64
0.07 0.22 0.25 0.17 0.32 0.25 0.11 0.08 0.04 0.06 0.16 0.21 0.23 0.35 0.82 0.67 0.43 0.34 0.43 0.38 0.43 0.85 0.78 1.05 1.46 1.38 1.69 1.60 1.84 2.05 1.93 1.47 1.74 1.93 2.50 3.61 4.84 4.91 5.04 5.34 4.68 4.34 4.28 3.98
0.14 0.27 0.37 0.25 0.62 0.79 0.60 0.21 0.03 0.03 0.27 0.39 0.29 0.35 0.97 0.63 0.71 0.54 0.39 0.28 0.26 0.55 0.38 0.33 0.43 0.78 1.15 1.89 2.05 2.26 2.60 2.09 1.71 1.84 1.99 2.08 2.46 3.15 3.62 4.33 4.73 4.75 5.00 4.67
0.53 0.52 0.44 0.38 0.70 0.71 0.43 0.20 0.04 0.22 0.31 0.22 0.23 0.50 0.69 0.53 0.54 0.65 0.63 0.68 0.16 0.21 0.42 0.22 0.18 0.29 0.55 0.82 1.22 1.70 1.56 1.70 2.27 2.34 2.34 2.25 2.29 2.60 2.92 3.03 3.16 3.37 3.25 3.21
0.79 0.95 0.69 0.56 0.76 0.93 0.50 0.44 0.34 0.27 0.10 0.16 0.25 0.49 0.78 0.66 0.70 0.56 0.44 0.36 0.36 0.18 0.54 0.44 0.26 0.34 0.41 0.60 0.85 1.09 1.29 1.30 1.93 2.51 3.02 3.38 3.58 3.51 3.14 3.12 3.89 3.67 3.30 3.29
0.63 0.59 0.63 0.73 0.91 0.89 0.55 0.44 0.16 0.07 0.12 0.18 0.30 0.42 0.63 0.63 0.52 0.48 0.39 0.21 0.16 0.15 0.62 0.68 0.29 0.35 0.57 0.65 0.63 0.63 0.81 1.10 1.31 1.58 2.02 2.19 2.86 3.23 3.11 3.32 3.46 3.28 3.28 3.23
0.84 0.67 0.77 0.72 0.62 0.69 0.65 0.47 0.39 0.17 0.17 0.17 0.23 0.37 0.58 0.55 0.47 0.38 0.35 0.34 0.32 0.27 0.47 1.53 1.31 0.61 0.60 0.56 0.53 0.57 0.64 0.73 0.75 0.85 0.90 0.81 1.07 1.45 1.39 1.43 1.51 1.74 1.72 1.98
1.70 1.39 1.06 0.92 0.98 1.08 1.05 0.73 0.60 0.58 0.48 0.35 0.34 0.31 0.31 0.34 0.41 0.48 0.41 0.37 0.40 0.56 0.59 1.01 1.49 1.11 0.58 0.49 0.54 0.63 0.67 0.95 0.85 1.00 0.98 1.06 1.45 1.94 2.24 2.47 2.74 2.45 2.47 2.54
2.34 2.11 1.91 1.65 1.50 1.67 1.25 1.00 0.67 0.89 0.83 0.78 0.63 0.67 0.61 0.52 0.45 0.43 0.46 0.44 0.43 0.52 0.93 1.19 1.14 1.14 1.03 0.93 0.96 0.87 0.87 0.93 0.97 1.11 1.17 1.29 1.56 1.96 2.29 2.16 2.40 2.94 3.29 3.28

GFSCGP_prec_precacc_246.txt.gz
Total_Precipitation_Accumulation
0.00 0.00 0.00 0.00 0.00 0.01 0.17 0.41 1.20 1.86 2.16 3.33 3.08 2.32 1.37 1.20 0.93 1.25 0.86 0.20 0.07 0.11 0.06 0.02 0.07 0.10 0.04 0.04 0.06 0.13 0.28 0.42 0.64 0.66 0.54 0.57 0.35 0.45 0.58 0.58 0.44 0.56 0.63 0.64
0.00 0.00 0.00 0.00 0.00 0.02 0.03 0.37 0.92 1.22 1.44 2.31 3.67 2.77 1.70 1.29 0.83 0.84 1.19 0.67 0.24 0.20 0.16 0.03 0.02 0.03 0.03 0.03 0.02 0.15 0.30 0.39 0.34 0.20 0.15 0.42 0.48 0.90 1.27 0.74 0.65 0.60 0.41 0.50
0.00 0.00 0.00 0.00 0.00 0.00 0.06 0.27 0.62 0.89 0.63 1.24 2.92 3.97 3.21 1.99 1.40 1.29 0.72 0.55 0.42 0.16 0.18 0.19 0.10 0.03 0.03 0.01 0.00 0.02 0.12 0.22 0.29 0.27 0.24 0.83 1.49 1.97 1.45 1.35 0.56 0.46 0.53 0.45
0.00 0.00 0.00 0.00 0.00 0.00 0.11 0.20 0.62 1.36 0.79 0.77 0.58 2.51 3.88 2.38 1.97 1.68 0.74 0.49 0.31 0.21 0.32 0.38 0.20 0.07 0.01 0.03 0.04 0.02 0.11 0.20 0.19 0.33 0.24 0.55 1.07 1.06 0.84 0.61 0.37 0.44 0.80 0.78
0.00 0.00 0.00 0.00 0.00 0.01 0.03 0.17 0.56 0.67 0.62 0.26 0.16 0.73 1.74 2.07 1.77 1.58 0.87 0.40 0.44 0.63 0.21 0.14 0.10 0.11 0.15 0.12 0.33 0.26 0.17 0.27 0.24 0.33 0.65 0.54 0.68 0.75 0.85 0.59 0.71 0.86 0.94 1.13
0.00 0.00 0.00 0.00 0.00 0.01 0.02 0.08 0.32 0.59 0.46 0.34 0.09 0.26 0.99 1.42 0.92 1.19 0.87 0.39 0.26 0.39 0.22 0.23 0.30 0.20 0.24 0.51 0.83 0.33 0.24 0.21 0.29 0.31 0.44 0.73 1.18 1.23 0.99 1.56 0.94 0.53 0.65 1.34
0.00 0.00 0.00 0.00 0.00 0.00 0.01 0.05 0.34 0.41 0.35 0.40 0.16 0.25 0.53 0.89 0.62 0.59 1.09 0.59 0.50 0.48 0.67 0.30 0.33 0.20 0.18 0.23 0.49 0.23 0.24 0.24 0.16 0.12 0.19 0.27 0.74 1.26 1.52 1.36 0.55 0.63 0.70 1.07
0.00 0.00 0.00 0.00 0.00 0.00 0.00 0.01 0.13 0.29 0.35 0.46 0.33 0.67 0.34 0.24 0.27 0.42 0.58 0.77 1.25 0.92 0.69 0.59 0.61 0.38 0.16 0.17 0.19 0.10 0.28 0.23 0.21 0.23 0.29 0.35 0.61 0.73 0.66 0.56 0.66 0.54 0.56 0.66
0.00 0.00 0.00 0.00 0.00 0.00 0.00 0.01 0.04 0.09 0.17 0.36 0.37 0.71 0.45 0.17 0.16 0.17 0.46 0.86 1.14 1.10 0.90 2.06 1.24 0.63 0.25 0.11 0.10 0.23 0.56 0.32 0.33 0.44 0.46 0.49 0.63 1.18 1.00 0.78 0.82 0.60 0.55 0.56
0.00 0.00 0.00 0.00 0.00 0.01 0.00 0.01 0.03 0.04 0.20 0.22 0.54 1.06 1.17 0.47 0.82 0.41 0.36 0.43 0.59 1.13 1.21 1.25 1.11 0.85 0.70 0.36 0.25 0.31 0.53 0.50 0.66 0.81 0.98 1.01 1.29 1.24 1.21 1.30 0.98 0.74 1.07 1.33
0.01 0.00 0.01 0.00 0.02 0.03 0.01 0.00 0.01 0.01 0.08 0.28 0.55 0.93 1.07 0.76 1.29 1.31 0.70 0.37 0.40 0.53 1.00 1.68 2.29 2.65 1.99 1.59 1.38 0.98 1.26 1.83 2.28 2.20 2.13 2.38 2.09 1.51 1.19 1.21 1.02 0.99 1.08 0.99
0.02 0.01 0.01 0.01 0.03 0.09 0.12 0.07 0.06 0.02 0.16 0.21 0.30 0.71 0.80 0.90 0.83 1.10 1.75 0.99 0.79 0.62 0.87 1.16 1.72 3.03 4.48 3.05 3.60 4.67 3.92 3.89 4.20 3.77 3.32 3.33 2.47 2.21 1.37 0.81 0.86 1.18 1.08 1.10
0.09 0.06 0.06 0.09 0.08 0.03 0.00 0.02 0.17 0.14 0.14 0.07 0.12 0.23 0.37 0.55 0.76 1.09 2.00 1.84 1.32 1.76 2.53 1.43 1.29 1.65 3.05 3.07 3.11 6.15 7.85 7.33 5.88 4.15 3.69 2.62 2.73 1.72 1.32 0.79 0.54 0.65 0.74 0.89
0.21 0.06 0.02 0.19 0.22 0.08 0.02 0.02 0.01 0.06 0.09 0.03 0.04 0.13 0.42 0.68 1.44 0.79 1.39 2.43 1.98 1.97 1.98 2.61 2.71 2.95 3.67 4.56 4.85 5.42 5.14 4.91 5.24 3.81 3.83 2.86 2.81 2.53 1.84 1.31 1.02 0.77 0.81 0.62
0.12 0.02 0.00 0.03 0.01 0.01 0.04 0.04 0.03 0.01 0.01 0.06 0.36 0.14 0.67 0.41 0.32 0.76 0.62 0.58 0.65 0.87 1.01 1.14 1.56 1.63 2.77 3.77 3.25 4.28 4.51 4.01 3.32 3.83 4.84 4.65 3.77 3.19 2.97 3.10 2.66 1.84 1.49 0.97
0.11 0.04 0.00 0.00 0.01 0.00 0.01 0.01 0.01 0.05 0.13 0.07 0.26 0.50 0.31 0.44 0.42 0.47 0.91 1.35 1.41 1.10 0.90 1.02 1.47 1.49 1.60 1.93 2.07 2.93 4.39 5.01 3.62 2.73 2.80 3.70 4.59 5.06 4.19 4.01 3.73 4.08 3.23 2.34
0.17 0.16 0.15 0.06 0.06 0.02 0.06 0.01 0.01 0.01 0.04 0.05 0.13 0.64 0.61 0.62 0.68 0.84 0.65 1.02 1.80 1.67 1.35 1.11 1.12 1.49 1.40 1.32 1.19 1.23 1.84 2.99 3.77 3.99 3.32 3.24 3.68 5.13 5.42 4.29 4.23 4.38 4.28 4.33
0.14 0.22 0.23 0.15 0.14 0.19 0.07 0.06 0.04 0.07 0.08 0.20 0.35 0.30 0.47 0.50 0.22 0.34 0.47 0.62 1.03 1.63 1.73 1.54 1.23 1.28 1.19 1.49 1.69 1.27 1.21 1.34 1.93 2.79 3.54 3.92 3.59 4.40 5.19 4.33 3.68 3.72 4.22 4.64
0.07 0.22 0.25 0.17 0.32 0.25 0.11 0.08 0.04 0.06 0.16 0.21 0.23 0.35 0.82 0.67 0.43 0.34 0.43 0.38 0.43 0.85 0.78 1.05 1.46 1.38 1.69 1.60 1.84 2.05 1.93 1.47 1.74 1.93 2.50 3.61 4.84 4.91 5.04 5.34 4.68 4.34 4.28 3.98
0.14 0.27 0.37 0.25 0.62 0.79 0.60 0.21 0.03 0.03 0.27 0.39 0.29 0.35 0.97 0.63 0.71 0.54 0.39 0.28 0.26 0.55 0.38 0.33 0.43 0.80 1.18 1.91 2.07 2.27 2.60 2.09 1.71 1.84 1.99 2.08 2.46 3.15 3.62 4.33 4.73 4.75 5.00 4.67
0.53 0.52 0.44 0.38 0.70 0.71 0.43 0.20 0.04 0.22 0.31 0.22 0.23 0.50 0.69 0.53 0.54 0.65 0.63 0.68 0.16 0.21 0.42 0.22 0.18 0.29 0.55 0.82 1.22 1.70 1.56 1.70 2.27 2.34 2.34 2.25 2.29 2.60 2.92 3.03 3.16 3.37 3.25 3.21
0.79 0.95 0.69 0.56 0.76 0.93 0.50 0.44 0.34 0.27 0.10 0.16 0.25 0.49 0.78 0.66 0.70 0.56 0.44 0.38 0.39 0.19 0.55 0.45 0.26 0.34 0.41 0.60 0.85 1.09 1.29 1.30 1.93 2.51 3.02 3.38 3.58 3.51 3.14 3.12 3.89 3.67 3.30 3.29
0.63 0.59 0.63 0.73 0.91 0.89 0.55 0.44 0.16 0.07 0.12 0.18 0.30 0.42 0.63 0.63 0.52 0.48 0.40 0.23 0.17 0.16 0.62 0.68 0.29 0.35 0.57 0.65 0.63 0.63 0.81 1.10 1.31 1.58 2.02 2.19 2.86 3.23 3.11 3.32 3.46 3.28 3.28 3.23
0.84 0.67 0.77 0.72 0.62 0.69 0.65 0.47 0.39 0.17 0.17 0.17 0.23 0.37 0.58 0.55 0.47 0.38 0.35 0.34 0.32 0.27 0.47 1.53 1.31 0.61 0.60 0.56 0.53 0.57 0.64 0.73 0.75 0.85 0.90 0.81 1.07 1.45 1.39 1.43 1.51 1.74 1.72 1.98
1.70 1.39 1.06 0.92 0.98 1.08 1.05 0.73 0.60 0.58 0.48 0.35 0.34 0.31 0.31 0.34 0.41 0.48 0.41 0.37 0.40 0.56 0.59 1.01 1.49 1.11 0.58 0.49 0.54 0.63 0.67 0.95 0.85 1.00 0.98 1.06 1.45 1.94 2.24 2.47 2.74 2.45 2.47 2.54
2.34 2.11 1.91 1.65 1.50 1.67 1.25 1.00 0.67 0.89 0.83 0.78 0.63 0.67 0.61 0.52 0.45 0.43 0.46 0.44 0.43 0.52 0.93 1.19 1.14 1.14 1.03 0.93 0.96 0.87 0.87 0.93 0.97 1.11 1.17 1.29 1.56 1.96 2.29 2.16 2.40 2.94 3.29 3.28